Weather History for KBXA - November, 2012

Change the Weather History Date:

Sunday, November 25, 2012

  Actual Average Record
Temperature  
Mean Temperature 46 °F -  
Max Temperature 64 °F 68 °F 56 °F (2014)
Min Temperature 28 °F 42 °F 35 °F (2013)
Degree Days  
Heating Degree Days 19    
Moisture  
Dew Point 34 °F    
Average Humidity 73    
Maximum Humidity 100    
Minimum Humidity 29    
Precipitation  
Precipitation 0.00 in - - ()
Sea Level Pressure  
Sea Level Pressure 30.17 in    
Wind  
Wind Speed 1 mph ()    
Max Wind Speed 8 mph    
Max Gust Speed -    
Visibility 10.0 miles    
Events      
Averages and records for this station are not official NWS values.
T = Trace of Precipitation, MM = Missing Value Source: Averaged Metar Reports

Daily Weather History Graph

Daily Weather History Graph

Search for Another Location

Airport or City:

Trip Planner

Search our weather history database for the weather conditions in past years. The results will help you decide how hot, cold, wet, or windy it might be!

Date:

Astronomy

Nov. 25, 2012 Rise Set
Actual Time 6:34 AM CST 4:58 PM CST
Civil Twilight 6:08 AM CST 5:24 PM CST
Nautical Twilight 5:39 AM CST 5:53 PM CST
Astronomical Twilight 5:10 AM CST 6:22 PM CST
Moon 3:08 PM CST (11/25) 3:56 AM CST (11/25)
Length of Visible Light 11h 15m
Length of Day
10h 23m
Waxing Gibbous, 93% of the Moon is Illuminated
Nov 25
Waxing Gibbous
Nov 28
Full
Dec 6
Last Quarter
Dec 13
New
Dec 19
First Quarter

Hourly Weather History & Observations

Time (CST) Temp. Dew Point Humidity Pressure Visibility Wind Dir Wind Speed Gust Speed Precip Events Conditions
12:15 AM 31.1 °F 31.1 °F 100% 30.21 in 10.0 mi Calm Calm - N/A   Clear
12:35 AM 32.0 °F 32.0 °F 100% 30.20 in 10.0 mi Calm Calm - N/A   Clear
12:55 AM 31.8 °F 31.8 °F 100% 30.20 in 10.0 mi Calm Calm - N/A   Clear
1:15 AM 32.0 °F 32.0 °F 100% 30.20 in 10.0 mi Calm Calm - N/A   Clear
1:35 AM 30.9 °F 30.9 °F 100% 30.19 in 10.0 mi Calm Calm - N/A   Clear
1:55 AM 30.2 °F 30.2 °F 100% 30.19 in 10.0 mi Calm Calm - N/A   Clear
2:15 AM 30.6 °F 30.6 °F 100% 30.19 in 10.0 mi Calm Calm - N/A   Clear
2:35 AM 30.9 °F 30.9 °F 100% 30.19 in 10.0 mi Calm Calm - N/A   Clear
2:55 AM 30.9 °F 30.9 °F 100% 30.20 in 10.0 mi Calm Calm - N/A   Clear
3:15 AM 30.6 °F 30.6 °F 100% 30.20 in 10.0 mi Calm Calm - N/A   Clear
3:35 AM 30.2 °F 30.2 °F 100% 30.20 in 10.0 mi Calm Calm - N/A   Clear
3:55 AM 30.4 °F 30.4 °F 100% 30.20 in 10.0 mi Calm Calm - N/A   Clear
4:15 AM 30.7 °F 30.7 °F 100% 30.20 in 10.0 mi Calm Calm - N/A   Clear
4:35 AM 30.4 °F 30.4 °F 100% 30.19 in 10.0 mi Calm Calm - N/A   Clear
4:55 AM 30.0 °F 30.0 °F 100% 30.19 in 10.0 mi Calm Calm - N/A   Clear
5:15 AM 30.0 °F 30.0 °F 100% 30.19 in 10.0 mi Calm Calm - N/A   Clear
5:35 AM 29.3 °F 29.3 °F 100% 30.20 in 10.0 mi Calm Calm - N/A   Clear
5:55 AM 29.7 °F 29.7 °F 100% 30.20 in 10.0 mi Calm Calm - N/A   Clear
6:15 AM 29.7 °F 29.7 °F 100% 30.21 in 10.0 mi Calm Calm - N/A   Clear
6:35 AM 28.6 °F 28.6 °F 100% 30.21 in 10.0 mi Calm Calm - N/A   Clear
6:55 AM 29.3 °F 29.3 °F 100% 30.22 in 10.0 mi Calm Calm - N/A   Clear
7:15 AM 29.5 °F 29.5 °F 100% 30.23 in 10.0 mi Calm Calm - N/A   Clear
7:35 AM 30.9 °F 30.9 °F 100% 30.23 in 10.0 mi Calm Calm - N/A   Clear
7:55 AM 32.9 °F 31.8 °F 96% 30.23 in 10.0 mi Calm Calm - N/A   Clear
8:15 AM 36.0 °F 34.3 °F 94% 30.24 in 10.0 mi Calm Calm - N/A   Clear
8:35 AM 39.2 °F 33.4 °F 80% 30.25 in 10.0 mi Calm Calm - N/A   Clear
9:15 AM 45.3 °F 32.7 °F 61% 30.25 in 10.0 mi Calm Calm - N/A   Clear
9:35 AM 48.2 °F 32.9 °F 55% 30.25 in 10.0 mi Calm Calm - N/A   Clear
9:55 AM 51.1 °F 32.4 °F 49% 30.24 in 10.0 mi Calm Calm - N/A   Clear
10:15 AM 53.4 °F 32.4 °F 45% 30.24 in 10.0 mi ESE 3.5 mph - N/A   Clear
10:35 AM 54.9 °F 31.6 °F 41% 30.23 in 10.0 mi Calm Calm - N/A   Clear
10:55 AM 56.5 °F 32.0 °F 39% 30.22 in 10.0 mi South 3.5 mph - N/A   Clear
11:15 AM 58.3 °F 31.8 °F 37% 30.21 in 10.0 mi SSW 3.5 mph - N/A   Clear
11:35 AM 58.8 °F 31.1 °F 35% 30.20 in 10.0 mi Calm Calm - N/A   Unknown
11:55 AM 59.9 °F 30.6 °F 33% 30.19 in 10.0 mi SW 3.5 mph - N/A   Unknown
12:15 PM 60.6 °F 30.7 °F 32% 30.18 in 10.0 mi Calm Calm - N/A   Unknown
12:35 PM 61.3 °F 30.9 °F 32% 30.17 in 10.0 mi South 3.5 mph - N/A   Unknown
12:55 PM 61.7 °F 30.0 °F 30% 30.16 in 10.0 mi WSW 3.5 mph - N/A   Unknown
1:15 PM 62.6 °F 31.1 °F 31% 30.15 in 10.0 mi SW 3.5 mph - N/A   Unknown
1:35 PM 63.0 °F 30.9 °F 30% 30.14 in 10.0 mi South 4.6 mph - N/A   Clear
1:55 PM 63.7 °F 31.5 °F 30% 30.14 in 10.0 mi SSE 5.8 mph - N/A   Clear
2:15 PM 64.0 °F 31.6 °F 30% 30.13 in 10.0 mi SSW 4.6 mph - N/A   Clear
2:55 PM 64.8 °F 32.0 °F 29% 30.12 in 10.0 mi South 4.6 mph - N/A   Unknown
3:15 PM 64.8 °F 32.0 °F 29% 30.12 in 10.0 mi South 4.6 mph - N/A   Unknown
3:35 PM 64.6 °F 33.3 °F 31% 30.12 in 10.0 mi SW 8.1 mph - N/A   Unknown
3:55 PM 64.4 °F 34.3 °F 33% 30.11 in 10.0 mi SSW 5.8 mph - N/A   Unknown
4:15 PM 63.7 °F 36.9 °F 37% 30.11 in 10.0 mi SSW 4.6 mph - N/A   Unknown
4:35 PM 61.9 °F 37.9 °F 41% 30.11 in 10.0 mi SSW 6.9 mph - N/A   Unknown
4:55 PM 60.3 °F 38.1 °F 44% 30.11 in 10.0 mi SW 6.9 mph - N/A   Unknown
5:15 PM 57.4 °F 37.9 °F 48% 30.12 in 10.0 mi SW 5.8 mph - N/A   Unknown
5:35 PM 55.4 °F 37.4 °F 51% 30.12 in 10.0 mi SW 4.6 mph - N/A   Unknown
5:55 PM 51.3 °F 40.1 °F 66% 30.12 in 10.0 mi Calm Calm - N/A   Unknown
6:15 PM 48.0 °F 38.7 °F 70% 30.12 in 10.0 mi Calm Calm - N/A   Unknown
6:35 PM 53.2 °F 39.4 °F 59% 30.13 in 10.0 mi SSE 4.6 mph - N/A   Unknown
6:55 PM 52.3 °F 41.0 °F 65% 30.13 in 10.0 mi SSE 3.5 mph - N/A   Unknown
7:15 PM 48.4 °F 40.6 °F 75% 30.14 in 10.0 mi South 3.5 mph - N/A   Unknown
7:35 PM 51.1 °F 42.8 °F 73% 30.14 in 10.0 mi SSE 5.8 mph - N/A   Unknown
7:55 PM 50.2 °F 42.8 °F 76% 30.14 in 10.0 mi South 4.6 mph - N/A   Unknown
8:15 PM 50.0 °F 43.0 °F 77% 30.14 in 10.0 mi South 4.6 mph - N/A   Unknown
8:35 PM 50.0 °F 43.2 °F 77% 30.14 in 10.0 mi Calm Calm - N/A   Unknown
8:55 PM 45.7 °F 45.0 °F 97% 30.14 in 10.0 mi Calm Calm - N/A   Unknown
9:15 PM 43.9 °F 43.9 °F 100% 30.14 in 10.0 mi Calm Calm - N/A   Unknown
9:35 PM 43.9 °F 43.9 °F 100% 30.14 in 10.0 mi Calm Calm - N/A   Unknown
9:55 PM 42.3 °F 42.3 °F 100% 30.14 in 10.0 mi Calm Calm - N/A   Unknown
10:15 PM 41.4 °F 41.4 °F 100% 30.14 in 10.0 mi Calm Calm - N/A   Unknown
10:35 PM 41.2 °F 41.2 °F 100% 30.13 in 10.0 mi Calm Calm - N/A   Unknown
10:55 PM 39.4 °F 39.4 °F 100% 30.13 in 10.0 mi Calm Calm - N/A   Unknown
11:15 PM 40.5 °F 40.5 °F 100% 30.13 in 10.0 mi Calm Calm - N/A   Unknown
11:35 PM 39.9 °F 39.9 °F 100% 30.13 in 10.0 mi Calm Calm - N/A   Unknown